This is the latest recevied weather packets stored in our database for station/object KO5S. If no packets are shown the sender has not sent any weather packets the latest 10 day(s).
| Time | Temp. | Humidity | Pressure | Rain* | Wind** | Luminosity | Snow |
|---|---|---|---|---|---|---|---|
| 1777585096 | 24.44° C | 85% | 1006.5 hPa | 0 mm | - | - | - |
| 1777582116 | 23.89° C | 87% | 1006.5 hPa | 0 mm | - | - | - |
| 1777580896 | 23.89° C | 87% | 1006.6 hPa | 0 mm | - | - | - |
| 1777577296 | 23.89° C | 88% | 1007.7 hPa | 0.25 mm | - | - | - |
| 1777572496 | 23.89° C | 87% | 1008.2 hPa | 0 mm | - | - | - |
| 1777571896 | 23.89° C | 87% | 1008.2 hPa | 0 mm | - | - | - |
| 1777566496 | 21.67° C | 91% | 1008.8 hPa | 1.02 mm | - | - | - |
| 1777565317 | 21.67° C | 91% | 1009.3 hPa | 0.76 mm | - | - | - |
| 1777562295 | 21.67° C | 90% | 1009.2 hPa | 0 mm | - | - | - |
| 1777555715 | 20° C | 93% | 1009.2 hPa | 0 mm | - | - | - |
| 1777552095 | 19.44° C | 93% | 1008.8 hPa | 0 mm | - | - | - |
| 1777549095 | 19.44° C | 93% | 1008 hPa | 0 mm | - | - | - |
| 1777546695 | 20° C | 94% | 1007.3 hPa | 0 mm | - | - | - |
| 1777543095 | 20° C | 94% | 1006 hPa | 0 mm | - | - | - |
| 1777540695 | 20° C | 93% | 1007.4 hPa | 0.25 mm | - | - | - |
| 1777538315 | 19.44° C | 93% | 1007.6 hPa | 0.51 mm | - | - | - |
| 1777534695 | 19.44° C | 93% | 1007.4 hPa | 0 mm | - | - | - |
| 1777532895 | 19.44° C | 93% | 1007.1 hPa | 0 mm | - | - | - |
| 1777530495 | 19.44° C | 93% | 1007.3 hPa | 0.25 mm | - | - | - |
| 1777526895 | 18.89° C | 93% | 1009.5 hPa | 0.51 mm | - | - | - |
| 1777526295 | 18.89° C | 93% | 1009.8 hPa | 0.51 mm | - | - | - |
| 1777523296 | 18.89° C | 93% | 1010.2 hPa | 0.51 mm | - | - | - |
| 1777519096 | 18.33° C | 92% | 1010.1 hPa | 1.27 mm | - | - | - |
| 1777517296 | 18.33° C | 92% | 1010.5 hPa | 3.3 mm | - | - | - |
| 1777510696 | 20.56° C | 89% | 1010 hPa | 3.05 mm | - | - | - |
* Rain latest hour (hover to see other rain measurements)
** Current wind speed in m/s (hover to see current wind gust speed)